Location: Berville
(49.1893°N, 2.0748°E)
Time: 16:39:38
(UTC+00:00)

Cosmos 1869 - Pass Details

Date: 08 February 2023
Orbit: 510 x 549 km, 82.5° (Epoch: 29 March)

Event Time Altitude Azimuth Distance (km) Brightness Sun altitude
Rises 18:09:19 0° 348° (NNW) 2,677 6.9 -11.8°
Reaches altitude 10° 18:11:28 10° 346° (NNW) 1,790 6.0 -12.1°
Maximum altitude 18:15:23 69° 263° (W) 580 3.6 -12.8°
Drops below altitude 10° 18:19:19 10° 180° (S) 1,801 6.0 -13.4°
Sets 18:21:28 0° 178° (S) 2,696 6.9 -13.7°
